Theta_e
313 314 313 313 311 309 310 315 316 316 316 315 315 315 316 317 317 319 321 319 320 321 323 325 324 325 325 321 319 322 333 335 333 330 330 322 326 322 322 327 329 331 328 331 333
311 312 313 313 312 311 310 310 314 314 314 314 313 313 314 317 316 318 318 319 319 321 324 323 321 326 327 328 321 329 335 334 326 327 328 325 323 323 325 327 329 330 330 331 332
314 311 312 313 313 311 310 310 310 309 312 313 311 310 313 315 314 313 319 319 318 320 322 323 322 325 326 325 324 324 333 329 326 325 322 322 322 320 325 327 327 328 329 332 332
316 314 312 312 312 311 311 310 311 311 310 311 311 310 315 315 304 319 318 320 319 319 321 323 322 326 325 327 325 327 324 324 325 326 324 326 321 323 323 327 323 324 325 331 333
317 316 314 312 313 311 311 310 310 310 310 309 312 311 316 313 312 315 318 321 321 321 322 323 325 327 325 327 327 328 328 324 324 326 327 327 328 328 328 325 322 319 322 328 331
314 317 316 313 313 312 311 311 309 309 310 309 313 312 313 312 310 311 315 320 321 321 321 322 325 325 327 328 329 329 329 329 328 329 330 332 333 328 331 330 327 323 324 326 329
311 314 316 315 313 312 311 312 310 308 309 309 313 313 313 311 312 316 317 318 321 321 321 321 322 326 326 328 325 327 331 330 329 329 331 330 333 332 331 331 330 330 327 325 327
309 311 314 316 314 312 312 312 311 309 307 308 312 313 312 310 310 313 316 319 321 321 322 322 322 324 326 324 325 329 328 323 322 327 327 328 323 325 328 329 329 329 329 328 328
310 309 313 316 315 313 311 312 311 309 307 310 312 312 313 310 312 312 313 316 319 320 320 321 321 323 324 327 328 327 325 325 323 325 327 330 326 324 326 328 328 328 328 327 326
309 310 311 313 316 314 312 311 311 309 309 311 312 313 311 312 312 313 313 317 317 320 321 323 323 324 324 325 325 323 325 324 325 324 323 327 328 326 325 325 324 324 324 324 323
308 309 310 311 315 315 312 312 310 310 310 309 310 310 309 311 311 314 314 316 318 320 322 323 323 323 321 323 321 319 321 322 323 321 321 322 322 321 321 321 322 324 325 325 324
306 308 309 309 312 315 313 311 310 308 311 308 308 310 309 312 312 313 314 316 317 318 319 322 321 319 319 319 321 320 322 323 321 319 319 320 319 318 318 318 319 320 320 320 320
307 307 308 309 310 311 313 311 309 308 309 308 308 310 311 312 311 312 313 313 314 316 319 318 315 315 318 320 322 321 321 320 320 317 317 317 316 314 313 314 316 317 318 318 318
306 306 306 308 310 311 313 311 308 306 310 308 309 309 310 311 311 310 313 313 314 316 316 317 314 315 317 318 319 320 317 319 318 317 317 316 317 313 312 311 313 315 317 317 318
304 305 305 307 309 310 311 309 306 307 316 309 308 307 310 310 311 311 312 313 314 314 315 314 313 315 317 317 317 315 315 316 317 318 317 317 319 313 312 312 312 313 314 315 316
302 303 304 307 308 309 309 306 305 308 313 308 308 310 311 310 310 312 313 312 311 312 313 311 311 313 314 315 316 315 315 316 316 316 317 314 313 310 310 310 311 311 311 313 314
301 302 304 306 307 309 308 305 308 310 304 308 309 310 310 311 311 311 313 313 314 314 314 314 314 313 312 315 315 316 316 318 317 319 316 311 314 313 311 311 311 312 313 313 313
301 300 301 303 304 306 306 309 312 309 307 305 307 309 310 310 310 311 311 312 312 310 311 313 314 314 314 312 314 317 316 313 312 313 310 313 314 312 313 313 313 314 315 314 314
301 302 301 303 303 306 308 311 313 310 306 306 307 308 309 310 310 311 311 312 311 311 308 310 309 311 313 312 311 315 316 312 314 312 317 313 314 314 314 313 314 314 311 312 313
301 301 301 301 303 304 304 312 310 306 305 306 308 309 310 311 310 311 311 310 311 311 309 309 311 309 311 313 313 313 312 315 314 314 313 310 310 312 311 311 311 311 312 311 310
300 301 300 301 301 302 305 306 310 305 305 306 308 308 309 310 309 312 311 308 310 310 310 307 308 311 312 315 314 316 316 314 313 313 312 311 310 310 310 311 311 310 309 310 310
300 301 300 301 303 301 304 305 302 306 305 305 306 308 309 309 309 310 310 309 309 310 312 309 309 311 310 310 311 313 314 315 315 314 314 315 315 311 311 311 311 310 310 309 309
297 300 300 301 302 304 303 303 305 304 305 305 306 306 306 308 309 308 308 305 308 312 312 310 313 312 310 308 308 312 312 313 314 312 311 315 313 309 308 308 309 309 309 310 311
298 299 298 301 301 304 306 305 305 304 305 305 305 305 305 308 307 308 307 305 306 310 311 310 311 312 312 307 308 311 311 312 313 314 314 312 311 310 309 309 309 310 310 311 312
296 300 300 303 302 303 304 305 306 306 305 306 306 305 306 308 307 306 306 306 305 308 309 310 311 311 310 308 307 309 308 310 313 313 311 309 308 309 309 310 310 311 311 311 310
299 300 298 301 301 304 305 305 306 306 305 306 307 306 306 307 307 306 306 307 307 306 308 308 310 307 308 307 306 308 309 312 310 311 310 311 311 310 310 311 312 311 309 309 309
297 296 300 303 302 304 304 304 306 305 304 305 306 306 306 306 306 306 304 306 307 307 308 309 309 310 309 307 308 310 308 307 309 310 311 313 312 311 311 311 309 308 309 309 310
Wind_Speed
22 22 18 16 14 15 17 15 12 10 8 6 5 2 3 5 8 7 4 3 3 8 7 7 4 2 1 2 1 1 5 7 5 6 3 6 7 3 1 4 4 5 2 3 16
23 23 22 20 16 15 15 19 18 14 10 8 7 5 2 4 6 8 7 7 5 5 4 5 6 0 3 4 3 6 6 7 2 3 2 6 5 6 5 6 7 6 5 5 16
26 25 24 23 20 16 17 14 15 18 15 10 8 5 2 1 3 1 3 8 13 7 4 1 1 3 6 3 5 4 11 6 2 0 1 2 3 1 4 6 7 8 9 12 16
29 27 26 24 23 20 16 17 15 13 13 13 9 5 4 1 4 1 5 5 8 8 5 3 3 5 6 8 5 6 6 3 2 2 3 3 2 4 8 6 2 2 2 13 16
30 30 28 26 26 22 19 17 17 15 13 14 11 8 6 3 6 2 4 5 5 7 7 7 7 5 9 6 6 9 7 4 3 3 2 1 6 8 15 14 8 5 5 11 15
25 32 32 29 27 25 22 20 17 16 14 14 13 10 6 7 4 4 3 2 4 5 6 7 5 3 4 3 10 3 9 6 4 6 6 7 13 3 17 11 11 9 11 11 14
25 27 32 31 29 27 24 23 19 17 14 16 16 12 8 10 2 2 5 3 5 3 4 5 2 6 5 4 3 2 6 7 9 7 7 7 15 16 24 14 15 16 13 11 14
29 27 31 34 32 29 26 24 20 18 16 17 16 11 7 9 16 4 3 3 4 4 2 4 3 3 2 5 3 4 4 8 5 9 7 13 21 19 17 13 18 17 15 15 15
29 29 27 34 34 31 28 25 21 17 16 14 11 7 5 4 7 16 11 5 5 4 4 3 3 3 5 7 5 6 8 12 7 2 3 13 11 9 6 10 16 16 15 14 14
30 29 28 29 36 33 29 26 20 15 12 10 3 5 6 6 6 11 17 9 5 8 3 7 5 8 5 10 11 11 10 8 10 2 4 12 17 16 18 13 13 12 11 12 13
28 31 30 27 33 36 33 22 10 4 14 7 9 4 2 6 7 5 14 10 4 10 9 10 10 13 18 17 11 4 7 10 4 4 8 17 19 16 16 18 19 20 19 19 19
31 30 31 30 28 40 41 16 20 11 7 16 3 13 2 7 4 5 15 11 11 14 13 7 17 14 7 13 15 11 8 10 9 10 9 18 26 23 23 25 23 22 22 22 23
26 28 30 31 28 26 30 36 26 26 4 11 10 11 7 8 7 14 18 11 15 15 18 17 2 13 11 10 15 15 16 14 14 11 16 19 24 19 10 14 21 21 25 26 25
29 28 29 29 20 28 28 39 34 24 4 8 15 8 14 8 7 11 22 11 8 19 16 14 12 5 14 19 15 15 9 12 12 9 6 2 10 17 15 15 16 20 20 20 19
27 27 28 34 15 27 17 29 34 10 10 16 12 12 16 19 12 8 25 7 13 13 11 11 13 16 11 13 13 8 6 7 10 11 13 16 9 7 6 10 15 18 16 17 18
29 29 28 25 27 18 23 38 24 5 8 10 11 17 22 21 8 11 15 9 5 9 9 8 0 12 10 10 16 9 7 3 4 5 8 14 11 19 15 13 10 10 13 12 12
30 31 32 21 17 24 39 18 9 10 11 10 9 18 26 14 18 15 20 22 13 11 15 10 11 4 6 10 9 11 13 4 4 6 9 1 11 22 6 9 10 12 14 11 10
32 32 34 29 24 36 31 12 16 13 10 8 13 21 20 18 18 17 20 20 21 14 12 12 9 17 14 12 10 22 18 6 8 7 6 4 15 11 2 8 14 12 13 12 15
30 29 32 29 32 34 12 19 16 9 13 18 21 21 12 19 13 18 22 23 21 24 15 12 10 11 13 11 15 16 17 12 4 1 4 9 16 20 18 17 16 18 11 10 12
26 22 27 33 34 18 8 25 8 12 19 22 14 18 18 23 14 19 19 19 22 27 18 6 4 1 13 13 14 12 11 7 8 7 9 13 20 19 8 17 17 18 15 11 12
23 6 16 32 27 8 10 7 8 18 19 19 13 13 17 22 22 23 20 8 30 25 20 8 4 5 8 13 18 10 9 8 9 13 6 10 14 14 15 12 11 10 11 15 19
8 10 13 35 12 3 13 7 5 18 19 10 11 16 23 28 23 22 24 15 19 22 28 15 6 6 11 5 15 21 21 19 9 11 13 17 24 12 20 21 20 20 17 15 17
4 4 17 32 13 9 7 8 5 13 24 14 14 14 15 24 14 19 21 9 15 23 22 13 7 6 4 5 3 13 19 22 21 13 18 16 17 13 19 23 20 21 21 19 22
3 6 3 12 9 9 9 9 14 13 16 15 9 13 15 17 12 22 14 7 14 20 11 18 10 15 16 5 11 14 18 22 21 16 24 20 29 32 32 30 22 22 21 24 24
2 5 4 3 10 17 7 11 10 9 13 21 14 21 17 11 18 11 18 8 12 17 15 14 12 20 22 15 6 8 15 24 26 28 19 26 23 31 34 25 24 25 27 27 27
6 3 1 2 10 13 12 13 12 6 9 14 13 23 24 16 18 16 22 14 13 16 20 12 6 13 13 19 15 14 21 17 23 25 24 28 27 32 31 30 29 27 27 24 26
5 5 1 7 17 16 13 9 7 11 6 13 16 22 22 18 23 14 15 18 15 20 23 16 10 6 6 9 11 12 31 24 23 24 21 22 29 30 27 27 28 26 21 24 26
Wind_Direction
226 227 235 232 233 231 227 222 223 230 227 228 232 251 310 307 309 303 263 248 278 263 276 312 1 4 242 133 127 212 231 241 225 180 207 155 197 161 141 194 215 194 269 97 152
226 227 228 227 232 229 229 227 223 224 229 236 243 242 294 309 320 275 258 264 254 258 322 285 262 264 180 182 172 217 232 228 205 226 267 178 230 160 187 192 221 214 183 145 164
230 226 224 224 226 227 227 226 230 229 227 230 242 243 240 351 299 203 336 280 247 236 223 305 228 220 204 193 184 189 240 194 125 212 222 203 249 272 198 214 233 232 207 179 182
237 231 224 221 222 223 223 220 219 225 222 219 222 207 186 181 234 101 16 348 212 215 189 189 183 187 212 202 181 205 229 198 157 147 183 187 308 267 241 254 32 276 252 185 194
237 233 229 223 217 220 217 217 219 222 220 209 203 182 164 209 248 219 29 57 135 172 183 184 192 187 212 204 169 222 217 201 198 202 247 244 248 272 262 261 268 250 237 211 216
242 233 229 223 217 217 217 212 211 217 217 205 197 182 192 219 252 236 214 86 139 155 171 183 213 190 191 207 215 192 238 220 223 234 261 262 262 216 257 250 252 253 246 241 228
245 238 229 225 219 215 215 212 207 205 213 205 194 187 222 232 137 133 185 179 171 166 166 185 182 210 168 172 152 181 247 221 222 221 240 225 252 232 257 253 259 260 251 244 239
244 240 231 224 220 216 213 211 208 205 202 202 196 186 237 236 231 223 177 188 190 179 181 175 180 130 219 118 120 196 221 246 175 214 232 202 257 249 260 254 246 253 249 245 238
239 236 232 223 220 215 212 208 204 200 202 190 184 188 233 203 198 216 207 196 166 164 188 150 183 188 159 194 203 199 236 225 239 230 285 214 264 254 287 254 254 259 261 255 252
235 231 228 226 220 213 208 202 197 188 182 173 204 184 188 215 184 204 193 173 164 162 147 197 189 194 204 196 218 224 227 225 236 132 242 255 256 266 278 277 279 278 269 270 264
234 226 225 224 218 214 198 171 143 178 188 187 190 218 337 120 128 167 177 169 178 191 189 196 203 210 211 218 248 257 239 244 232 244 303 270 274 271 274 274 266 263 263 264 264
228 224 221 218 215 213 189 187 182 144 170 217 225 191 152 169 142 182 173 180 187 196 189 191 223 219 230 220 226 228 232 238 258 272 286 287 282 278 267 261 259 261 262 260 260
224 219 216 216 215 218 185 189 176 151 159 207 203 206 166 174 199 187 183 190 192 195 201 204 194 216 211 209 216 227 235 246 260 282 272 290 285 265 249 250 250 249 248 251 249
221 219 216 212 211 206 224 189 175 174 201 182 195 221 189 170 233 179 194 179 192 203 198 222 202 164 200 220 214 230 228 245 255 272 268 62 293 279 275 260 243 245 240 249 256
221 214 212 204 196 195 204 176 163 143 229 162 171 174 169 181 129 188 181 194 194 178 187 195 195 193 200 206 198 219 180 232 246 250 274 260 269 254 262 261 248 251 248 246 251
221 220 214 211 206 201 184 155 132 196 220 176 155 175 165 194 172 140 177 194 170 200 224 222 84 206 199 193 196 157 149 138 194 234 255 226 225 265 246 255 268 251 247 251 251
222 218 210 193 209 187 165 156 187 211 150 171 172 172 177 172 174 175 178 188 177 184 203 195 204 166 167 171 192 185 168 176 209 215 246 206 218 250 297 286 248 256 274 276 266
215 214 221 209 206 173 157 194 224 156 179 160 168 166 185 159 191 186 183 196 213 205 173 197 206 199 182 194 182 198 186 195 215 219 268 199 230 253 251 231 253 277 285 286 282
210 212 215 206 206 179 186 211 208 171 171 159 148 167 178 182 165 181 199 205 201 201 200 201 226 187 194 185 173 193 218 211 311 134 280 238 257 272 253 247 254 269 289 289 284
204 212 215 208 209 202 213 213 183 171 155 156 155 178 178 181 164 182 187 210 209 206 218 186 193 268 181 199 213 193 169 190 217 230 238 249 256 253 279 281 283 285 301 299 304
202 218 211 198 199 219 218 228 187 178 158 175 181 171 191 177 188 184 191 198 198 190 201 182 222 144 172 201 194 190 187 220 213 226 242 267 259 256 271 275 286 300 285 290 297
193 210 186 173 195 193 222 166 268 181 178 179 186 164 184 183 188 188 200 211 196 180 190 194 224 191 198 174 228 219 210 200 214 214 232 249 263 278 286 289 292 289 293 302 300
187 177 174 178 213 209 148 193 212 178 187 180 180 185 179 179 182 196 199 178 187 174 177 160 190 178 195 234 193 221 218 225 229 247 243 234 264 280 286 287 286 293 299 289 286
183 165 237 192 211 198 164 170 184 194 191 196 167 160 155 181 185 193 181 166 181 184 164 165 199 214 220 140 178 211 216 219 220 229 242 240 259 278 279 276 298 293 289 285 284
160 225 221 161 177 177 198 156 169 153 210 201 198 178 164 168 183 183 177 153 177 188 180 188 226 225 245 254 203 214 225 222 221 230 232 255 248 264 271 287 284 289 289 291 295
169 188 84 205 170 151 167 204 189 159 157 203 179 191 190 186 189 177 171 175 174 181 188 198 231 215 242 237 239 251 244 228 225 235 242 250 256 255 275 280 281 283 287 296 297
155 161 217 172 176 180 187 173 172 167 183 205 197 186 197 197 194 186 165 168 157 162 184 183 182 164 226 211 214 250 243 231 232 235 231 238 247 259 262 272 278 286 299 294 296